User: anonymous   Login
Location: Peebles
(55.6412°N, 3.1714°W)
Time: 00:24:41
(UTC+01:00)
Language:

FLOCK 2P 11 - Orbit

View from above orbital plane
View from above orbital plane
View from above satellite
View from above satellite

Ground track
Ground track

The orbit data is extracted from the following two-line orbital elements,

1 41608U 16040K   22267.18556641  .00263294  00000-0  18209-2 0  9993
2 41608  97.1931 333.0258 0002339 126.5020 233.6460 15.73755003349060
Epoch (UTC): 24 September 2022 04:27:12
Eccentricity: 0.0002339
inclination: 97.1931°
perigee height: 346 km
apogee height: 350 km
right ascension of ascending node: 333.0258°
argument of perigee: 126.5020°
revolutions per day: 15.73755003
mean anomaly at epoch: 233.6460°
orbit number at epoch: 34906

The dashed part of the orbit path shows where the satellite is in the earth's shadow,  

DLR